Location: Grand Mazuras
(45.9128°N, 1.7636°E)
Time: 22:56:52
(UTC+00:00)

Tiangong - Visible Passes

Search period start: 21 September 2021 00:00
Search period end: 01 October 2021 00:00
Orbit: 380 x 385 km, 41.5° (Epoch: 20 September)

Date Brightness Start Highest point End Pass type
(mag) Time Alt. Az. Time Alt. Az. Time Alt. Az.
25 Sep 3.9 04:58:53 10° S 04:59:55 11° SSE 05:00:57 10° SE visible
27 Sep 3.5 04:34:01 10° SSW 04:36:07 16° SSE 04:38:13 10° ESE visible
28 Sep 4.0 03:36:49 11° SE 03:36:49 11° SE 03:37:11 10° SE visible
28 Sep 2.6 05:09:36 10° SW 05:12:23 29° SSE 05:15:11 10° ESE visible
29 Sep 2.8 04:11:49 21° S 04:12:23 22° SSE 04:14:56 10° ESE visible
30 Sep 2.2 04:46:47 17° SW 04:48:45 34° S 04:51:39 10° ESE visible
